Fayetteville, NC

3:28 AM EDT on March 23, 2017 (GMT -0400)
Fayetteville Regional-Grannis

Weather History for KFAY - April, 2014

Change the Weather History Date:

Saturday, April 12, 2014

  Actual Average Record
Temperature  
Mean Temperature 69 °F 62 °F  
Max Temperature 83 °F 74 °F 96 °F (1930)
Min Temperature 54 °F 50 °F 29 °F (1989)
Degree Days  
Heating Degree Days 0 5  
Month to date heating degree days 30 74  
Since 1 July heating degree days 2852 2643  
Cooling Degree Days 4 2  
Month to date cooling degree days 27 18  
Year to date cooling degree days 31 34  
Growing Degree Days 18 (Base 50)    
Moisture  
Dew Point 49 °F    
Average Humidity 55    
Maximum Humidity 83    
Minimum Humidity 26    
Precipitation  
Precipitation 0.00 in 0.11 in 2.15 in (1944)
Month to date precipitation 0.21 1.34  
Year to date precipitation 10.57 10.95  
Sea Level Pressure  
Sea Level Pressure 30.15 in    
Wind  
Wind Speed 8 mph (SSW)    
Max Wind Speed 16 mph    
Max Gust Speed 20 mph    
Visibility 10 miles    
Events      
T = Trace of Precipitation, MM = Missing Value Source: NWS Daily Summary

Daily Weather History Graph

Daily Weather History Graph

Search for Another Location

Airport or City:

Trip Planner

Search our weather history database for the weather conditions in past years. The results will help you decide how hot, cold, wet, or windy it might be!

Date:

Astronomy

Apr. 12, 2014 Rise Set
Actual Time 6:47 AM EDT 7:45 PM EDT
Civil Twilight 6:21 AM EDT 8:11 PM EDT
Nautical Twilight 5:50 AM EDT 8:42 PM EDT
Astronomical Twilight 5:19 AM EDT 9:14 PM EDT
Moon 5:27 PM EDT (4/12) 5:07 AM EDT (4/12)
Length of Visible Light 13h 49m
Length of Day
12h 58m
Waxing Gibbous, 93% of the Moon is Illuminated
Apr 12
Waxing Gibbous
Apr 15
Full
Apr 22
Last Quarter
Apr 29
New
May 6
First Quarter

Hourly Weather History & Observations

Time (EDT) Temp. Dew Point Humidity Pressure Visibility Wind Dir Wind Speed Gust Speed Precip Events Conditions
12:53 AM 64.0 °F 48.9 °F 58% 30.15 in 10.0 mi SW 6.9 mph - N/A   Clear
1:53 AM 60.1 °F 48.9 °F 67% 30.15 in 10.0 mi SSW 8.1 mph - N/A   Clear
2:53 AM 60.1 °F 48.9 °F 67% 30.13 in 10.0 mi South 8.1 mph - N/A   Clear
3:53 AM 57.0 °F 48.9 °F 74% 30.14 in 10.0 mi SSW 6.9 mph - N/A   Clear
4:53 AM 57.0 °F 48.9 °F 74% 30.14 in 10.0 mi SSW 6.9 mph - N/A   Clear
5:53 AM 55.0 °F 48.9 °F 80% 30.14 in 10.0 mi SSW 5.8 mph - N/A   Clear
6:53 AM 54.0 °F 48.9 °F 83% 30.16 in 10.0 mi SSW 6.9 mph - N/A   Clear
7:53 AM 57.9 °F 51.1 °F 78% 30.18 in 10.0 mi SSW 6.9 mph - N/A   Clear
8:53 AM 64.0 °F 52.0 °F 65% 30.19 in 10.0 mi SW 8.1 mph - N/A   Clear
9:53 AM 69.1 °F 52.0 °F 54% 30.20 in 10.0 mi WSW 6.9 mph - N/A   Clear
10:53 AM 73.0 °F 51.1 °F 46% 30.21 in 10.0 mi West 8.1 mph - N/A   Clear
11:53 AM 77.0 °F 46.0 °F 33% 30.20 in 10.0 mi WSW 8.1 mph - N/A   Clear
12:53 PM 79.0 °F 46.0 °F 31% 30.18 in 10.0 mi WSW 5.8 mph - N/A   Clear
1:53 PM 81.0 °F 46.0 °F 29% 30.16 in 10.0 mi South 10.4 mph - N/A   Clear
2:53 PM 81.0 °F 46.0 °F 29% 30.14 in 10.0 mi SE 4.6 mph - N/A   Clear
2:59 PM 81.0 °F 46.0 °F 29% 30.16 in 10.0 mi SSW 8.1 mph - N/A   Clear
3:53 PM 81.0 °F 45.0 °F 28% 30.12 in 10.0 mi SW 6.9 mph - N/A   Clear
4:53 PM 82.0 °F 46.0 °F 28% 30.11 in 10.0 mi SSW 9.2 mph - N/A   Partly Cloudy
5:53 PM 82.0 °F 45.0 °F 27% 30.10 in 10.0 mi SSW 9.2 mph - N/A   Partly Cloudy
6:53 PM 79.0 °F 46.0 °F 31% 30.10 in 10.0 mi South 6.9 mph - N/A   Clear
7:53 PM 75.0 °F 48.9 °F 40% 30.12 in 10.0 mi South 10.4 mph - N/A   Clear
8:53 PM 73.0 °F 51.1 °F 46% 30.14 in 10.0 mi South 13.8 mph - N/A   Clear
9:53 PM 69.1 °F 51.1 °F 53% 30.17 in 10.0 mi South 6.9 mph - N/A   Clear
10:53 PM 66.9 °F 51.1 °F 57% 30.17 in 10.0 mi South 6.9 mph - N/A   Clear
11:53 PM 64.0 °F 53.1 °F 67% 30.17 in 10.0 mi South 5.8 mph - N/A   Clear